Las Cruces, NM

1:40 PM MST on November 19, 2017 (GMT -0700)
Las Cruces International

Weather History for KLRU - November, 2012

Change the Weather History Date:

Sunday, November 11, 2012

  Actual Average Record
Temperature  
Mean Temperature 44 °F -  
Max Temperature 53 °F 61 °F 82 °F (2005)
Min Temperature 35 °F 40 °F 30 °F (2011)
Degree Days  
Heating Degree Days 21    
Moisture  
Dew Point 8 °F    
Average Humidity 26    
Maximum Humidity 49    
Minimum Humidity 9    
Precipitation  
Precipitation 0.00 in - - ()
Sea Level Pressure  
Sea Level Pressure 30.17 in    
Wind  
Wind Speed 11 mph (NW)    
Max Wind Speed 24 mph    
Max Gust Speed 29 mph    
Visibility 10 miles    
Events      
Averages and records for this station are not official NWS values.
T = Trace of Precipitation, MM = Missing Value Source: NWS Daily Summary

Daily Weather History Graph

Daily Weather History Graph

Search for Another Location

Airport or City:

Trip Planner

Search our weather history database for the weather conditions in past years. The results will help you decide how hot, cold, wet, or windy it might be!

Date:

Astronomy

Nov. 11, 2012 Rise Set
Actual Time 6:33 AM MST 5:09 PM MST
Civil Twilight 6:08 AM MST 5:35 PM MST
Nautical Twilight 5:38 AM MST 6:04 PM MST
Astronomical Twilight 5:09 AM MST 6:33 PM MST
Moon 3:58 AM MST (11/11) 3:29 PM MST (11/11)
Length of Visible Light 11h 27m
Length of Day
10h 35m
Waning Crescent, 7% of the Moon is Illuminated
Nov 11
Waning Crescent
Nov 13
New
Nov 20
First Quarter
Nov 28
Full
Dec 6
Last Quarter

Hourly Weather History & Observations

Time (MST) Temp. Windchill Dew Point Humidity Pressure Visibility Wind Dir Wind Speed Gust Speed Precip Events Conditions
12:15 AM 44.6 °F 40.7 °F 18.3 °F 35% 29.98 in 10.0 mi WNW 6.9 mph - N/A   Overcast
12:35 AM 44.1 °F 40.8 °F 18.3 °F 36% 29.99 in 10.0 mi WNW 5.8 mph - N/A   Overcast
12:55 AM 44.1 °F 40.1 °F 18.5 °F 36% 29.99 in 10.0 mi WNW 6.9 mph - N/A   Overcast
1:15 AM 43.9 °F 38.8 °F 18.3 °F 36% 29.99 in 10.0 mi WNW 9.2 mph - N/A   Overcast
1:35 AM 43.9 °F 36.5 °F 19.2 °F 37% 29.99 in 10.0 mi West 16.1 mph 21.9 mph N/A   Overcast
1:55 AM 43.3 °F 34.0 °F 20.1 °F 40% 29.99 in 10.0 mi West 24.2 mph 28.8 mph N/A   Mostly Cloudy
2:15 AM 43.2 °F 35.3 °F 19.9 °F 40% 29.99 in 10.0 mi West 17.3 mph 26.5 mph N/A   Mostly Cloudy
2:35 AM 43.2 °F 37.0 °F 19.2 °F 38% 30.00 in 10.0 mi WNW 11.5 mph 21.9 mph N/A   Overcast
2:55 AM 42.8 °F 35.4 °F 18.7 °F 38% 30.00 in 10.0 mi WNW 15.0 mph 24.2 mph N/A   Overcast
3:15 AM 41.7 °F 36.1 °F 20.7 °F 43% 30.01 in 10.0 mi WNW 9.2 mph - N/A   Overcast
3:35 AM 40.6 °F 34.3 °F 22.1 °F 48% 30.02 in 10.0 mi NW 10.4 mph 16.1 mph N/A   Overcast
3:55 AM 39.6 °F 31.3 °F 21.9 °F 49% 30.03 in 10.0 mi NW 15.0 mph 18.4 mph N/A   Mostly Cloudy
4:15 AM 39.9 °F 30.5 °F 21.2 °F 47% 30.03 in 10.0 mi WNW 19.6 mph 24.2 mph N/A   Overcast
4:35 AM 39.4 °F 31.1 °F 20.8 °F 47% 30.04 in 10.0 mi NW 15.0 mph - N/A   Overcast
4:55 AM 39.2 °F 30.8 °F 20.3 °F 47% 30.05 in 10.0 mi WNW 15.0 mph - N/A   Scattered Clouds
5:15 AM 37.9 °F 30.0 °F 20.3 °F 49% 30.06 in 10.0 mi WNW 12.7 mph - N/A   Clear
5:35 AM 37.9 °F 29.2 °F 19.2 °F 47% 30.07 in 10.0 mi WNW 15.0 mph 20.7 mph N/A   Clear
5:55 AM 37.4 °F 29.8 °F 17.4 °F 44% 30.08 in 10.0 mi WNW 11.5 mph - N/A   Clear
6:35 AM 37.0 °F 28.5 °F 15.4 °F 41% 30.11 in 10.0 mi NW 13.8 mph 18.4 mph N/A   Clear
6:55 AM 36.1 °F 28.7 °F 15.3 °F 43% 30.12 in 10.0 mi WNW 10.4 mph - N/A   Clear
7:15 AM 37.4 °F 31.4 °F 12.7 °F 36% 30.13 in 10.0 mi WNW 8.1 mph - N/A   Clear
7:35 AM 38.3 °F 33.2 °F 11.3 °F 33% 30.15 in 10.0 mi WNW 6.9 mph - N/A   Clear
7:55 AM 39.4 °F - 10.9 °F 31% 30.16 in 10.0 mi Calm Calm - N/A   Clear
8:55 AM 43.0 °F 36.0 °F 10.4 °F 27% 30.18 in 10.0 mi NW 13.8 mph - N/A   Clear
9:15 AM 43.7 °F 37.7 °F 10.8 °F 26% 30.19 in 10.0 mi NNW 11.5 mph 17.3 mph N/A   Clear
9:35 AM 44.6 °F 39.2 °F 10.6 °F 25% 30.20 in 10.0 mi NW 10.4 mph - N/A   Clear
9:55 AM 45.1 °F 40.3 °F 7.5 °F 22% 30.21 in 10.0 mi NW 9.2 mph - N/A   Clear
10:15 AM 46.0 °F 41.9 °F 6.6 °F 20% 30.20 in 10.0 mi NW 8.1 mph - N/A   Clear
10:35 AM 45.9 °F 44.6 °F 7.2 °F 21% 30.20 in 10.0 mi NNW 3.5 mph - N/A   Clear
11:15 AM 46.9 °F - 5.2 °F 18% 30.20 in 10.0 mi WNW 4.6 mph - N/A   Clear
11:35 AM 48.0 °F - 4.5 °F 17% 30.19 in 10.0 mi NNW 3.5 mph - N/A   Clear
11:55 AM 49.3 °F - 4.1 °F 16% 30.18 in 10.0 mi WNW 8.1 mph - N/A   Clear
12:15 PM 50.5 °F - -2.0 °F 11% 30.18 in 10.0 mi WNW 11.5 mph 18.4 mph N/A   Clear
12:35 PM 50.7 °F - 0.3 °F 13% 30.16 in 10.0 mi WNW 13.8 mph 19.6 mph N/A   Clear
12:55 PM 51.3 °F - 0.3 °F 12% 30.16 in 10.0 mi WNW 10.4 mph 17.3 mph N/A   Clear
1:15 PM 52.5 °F - -1.1 °F 11% 30.16 in 10.0 mi NNW 9.2 mph 23.0 mph N/A   Clear
1:35 PM 52.9 °F - -2.0 °F 10% 30.16 in 10.0 mi WNW 15.0 mph 18.4 mph N/A   Clear
1:55 PM 53.2 °F - -3.1 °F 10% 30.16 in 10.0 mi West 16.1 mph 21.9 mph N/A   Clear
2:15 PM 52.7 °F - -4.9 °F 9% 30.16 in 10.0 mi WNW 10.4 mph 24.2 mph N/A   Clear
2:35 PM 52.9 °F - -4.5 °F 9% 30.16 in 10.0 mi West 12.7 mph 25.3 mph N/A   Clear
2:55 PM 53.1 °F - -3.6 °F 10% 30.16 in 10.0 mi WNW 12.7 mph 23.0 mph N/A   Clear
3:15 PM 52.9 °F - -0.2 °F 11% 30.16 in 10.0 mi West 16.1 mph - N/A   Clear
3:35 PM 52.7 °F - -0.4 °F 11% 30.17 in 10.0 mi West 13.8 mph 26.5 mph N/A   Clear
3:55 PM 52.7 °F - 0.5 °F 12% 30.18 in 10.0 mi WSW 11.5 mph 20.7 mph N/A   Clear
4:15 PM 52.2 °F - 0.5 °F 12% 30.18 in 10.0 mi West 12.7 mph - N/A   Clear
4:35 PM 51.3 °F - 1.4 °F 13% 30.19 in 10.0 mi WNW 8.1 mph - N/A   Clear
4:55 PM 50.0 °F - 1.4 °F 14% 30.20 in 10.0 mi WNW 9.2 mph - N/A   Clear
5:15 PM 47.8 °F - 1.0 °F 15% 30.21 in 10.0 mi NW 5.8 mph - N/A   Clear
5:35 PM 45.1 °F 42.0 °F -0.0 °F 15% 30.21 in 10.0 mi WNW 5.8 mph - N/A   Clear
5:55 PM 42.1 °F 37.1 °F -0.6 °F 17% 30.23 in 10.0 mi NNW 8.1 mph - N/A   Clear
6:15 PM 42.1 °F 36.6 °F -0.4 °F 17% 30.24 in 10.0 mi NNW 9.2 mph - N/A   Clear
6:35 PM 41.4 °F 36.2 °F 1.2 °F 19% 30.25 in 10.0 mi North 8.1 mph - N/A   Clear
6:55 PM 41.2 °F 36.6 °F 2.1 °F 20% 30.25 in 10.0 mi North 6.9 mph - N/A   Clear
7:15 PM 39.2 °F 34.2 °F 1.6 °F 21% 30.27 in 10.0 mi NNW 6.9 mph - N/A   Clear
7:35 PM 36.5 °F 30.3 °F 1.6 °F 23% 30.27 in 10.0 mi NNW 8.1 mph - N/A   Clear
7:55 PM 35.6 °F 28.6 °F 1.4 °F 24% 30.28 in 10.0 mi NNW 9.2 mph - N/A   Clear
8:15 PM 39.2 °F 33.6 °F 2.5 °F 22% 30.30 in 10.0 mi NNW 8.1 mph - N/A   Clear
8:35 PM 38.5 °F 32.7 °F 2.1 °F 22% 30.31 in 10.0 mi NNW 8.1 mph - N/A   Clear
8:55 PM 37.6 °F 32.3 °F 1.6 °F 22% 30.33 in 10.0 mi NNW 6.9 mph - N/A   Clear
9:15 PM 36.7 °F 31.2 °F 1.4 °F 23% 30.33 in 10.0 mi NNW 6.9 mph - N/A   Clear
9:35 PM 37.8 °F 30.7 °F 2.3 °F 23% 30.33 in 10.0 mi North 10.4 mph - N/A   Clear
9:55 PM 38.8 °F 32.1 °F 3.4 °F 23% 30.34 in 10.0 mi North 10.4 mph - N/A   Clear
10:15 PM 39.6 °F 32.5 °F 5.5 °F 24% 30.34 in 10.0 mi North 11.5 mph - N/A   Clear
10:35 PM 39.6 °F 32.1 °F 7.0 °F 26% 30.35 in 10.0 mi North 12.7 mph - N/A   Clear
10:55 PM 39.6 °F 32.5 °F 7.0 °F 26% 30.36 in 10.0 mi North 11.5 mph - N/A   Clear
11:15 PM 39.0 °F 32.3 °F 6.8 °F 26% 30.36 in 10.0 mi North 10.4 mph - N/A   Clear
11:35 PM 38.7 °F 31.4 °F 6.8 °F 27% 30.36 in 10.0 mi North 11.5 mph - N/A   Clear
11:55 PM 38.5 °F 31.6 °F 7.0 °F 27% 30.36 in 10.0 mi North 10.4 mph - N/A   Clear